Weather History for KIWI - August, 2013

Change the Weather History Date:

Tuesday, August 6, 2013

  Actual Average Record
Temperature  
Mean Temperature 62 °F -  
Max Temperature 78 °F 76 °F 89 °F (2001)
Min Temperature 46 °F 56 °F 46 °F (2013)
Degree Days  
Heating Degree Days 4    
Growing Degree Days 12 (Base 50)    
Moisture  
Dew Point 50 °F    
Average Humidity 68    
Maximum Humidity 93    
Minimum Humidity 40    
Precipitation  
Precipitation 0.00 in - - ()
Sea Level Pressure  
Sea Level Pressure 30.12 in    
Wind  
Wind Speed 1 mph (SSW)    
Max Wind Speed 9 mph    
Max Gust Speed -    
Visibility 10 miles    
Events      
Averages and records for this station are not official NWS values.
T = Trace of Precipitation, MM = Missing Value Source: NWS Daily Summary

Daily Weather History Graph

Daily Weather History Graph

Search for Another Location

Airport or City:

Trip Planner

Search our weather history database for the weather conditions in past years. The results will help you decide how hot, cold, wet, or windy it might be!

Date:

Astronomy

Aug. 06, 2013 Rise Set
Actual Time 5:32 AM EDT 7:55 PM EDT
Civil Twilight 5:00 AM EDT 8:27 PM EDT
Nautical Twilight 4:20 AM EDT 9:07 PM EDT
Astronomical Twilight 3:35 AM EDT 9:52 PM EDT
Moon 5:22 AM EDT (8/6) 7:25 PM EDT (8/6)
Length of Visible Light 15h 27m
Length of Day
14h 22m
Waning Crescent, 0% of the Moon is Illuminated
Aug 6
Waning Crescent
Aug 6
New
Aug 14
First Quarter
Aug 20
Full
Aug 28
Last Quarter

Hourly Weather History & Observations

Time (EDT) Temp. Dew Point Humidity Pressure Visibility Wind Dir Wind Speed Gust Speed Precip Events Conditions
12:53 AM 50.0 °F 46.9 °F 89% 30.05 in 10.0 mi Calm Calm - N/A   Clear
1:53 AM 48.9 °F 46.0 °F 90% 30.04 in 10.0 mi Calm Calm - N/A   Clear
2:53 AM 48.0 °F 45.0 °F 89% 30.04 in 10.0 mi Calm Calm - N/A   Clear
3:53 AM 46.9 °F 45.0 °F 93% 30.05 in 10.0 mi Calm Calm - N/A   Clear
4:53 AM 46.9 °F 45.0 °F 93% 30.06 in 10.0 mi Calm Calm - N/A   Clear
5:53 AM 46.9 °F 45.0 °F 93% 30.07 in 10.0 mi Calm Calm - N/A   Clear
6:53 AM 53.1 °F 50.0 °F 89% 30.10 in 10.0 mi Calm Calm - N/A   Clear
7:53 AM 62.1 °F 53.1 °F 72% 30.12 in 6.0 mi Calm Calm - N/A   Haze
8:53 AM 68.0 °F 53.1 °F 59% 30.12 in 10.0 mi Calm Calm - N/A   Clear
9:53 AM 70.0 °F 52.0 °F 53% 30.13 in 10.0 mi Variable 3.5 mph - N/A   Clear
10:53 AM 73.0 °F 52.0 °F 48% 30.13 in 10.0 mi Calm Calm - N/A   Clear
11:53 AM 75.0 °F 53.1 °F 46% 30.12 in 8.0 mi Calm Calm - N/A   Clear
12:53 PM 73.9 °F 51.1 °F 45% 30.12 in 10.0 mi SSW 3.5 mph - N/A   Overcast
1:53 PM 75.0 °F 52.0 °F 44% 30.13 in 10.0 mi SSW 4.6 mph - N/A   Mostly Cloudy
2:53 PM 77.0 °F 51.1 °F 40% 30.12 in 10.0 mi SSW 9.2 mph - N/A   Clear
3:53 PM 75.9 °F 50.0 °F 40% 30.13 in 10.0 mi SSW 9.2 mph - N/A   Clear
4:53 PM 75.0 °F 50.0 °F 41% 30.14 in 10.0 mi SSW 6.9 mph - N/A   Clear
5:53 PM 72.0 °F 50.0 °F 46% 30.14 in 10.0 mi WSW 6.9 mph - N/A   Clear
6:53 PM 70.0 °F 50.0 °F 49% 30.15 in 10.0 mi SSW 3.5 mph - N/A   Clear
7:53 PM 64.0 °F 53.1 °F 67% 30.16 in 10.0 mi Calm Calm - N/A   Clear
8:53 PM 59.0 °F 53.1 °F 81% 30.17 in 10.0 mi Calm Calm - N/A   Clear
9:53 PM 57.0 °F 53.1 °F 87% 30.17 in 10.0 mi Calm Calm - N/A   Clear
10:53 PM 55.0 °F 52.0 °F 89% 30.17 in 10.0 mi Calm Calm - N/A   Clear
11:53 PM 53.1 °F 51.1 °F 93% 30.17 in 10.0 mi Calm Calm - N/A   Clear